GEFSMW_con_cape1000_138.txt.gz
Probability
32 29 45 42 32 32 32 35 29 23 16 13 13 3 3 0 0 3 3 10 10 10 3 3 0 0 0 0 0 0 0 0 0 0 0 0 0 0 3 3 3 3 6
42 39 42 39 23 26 19 26 23 16 16 16 13 6 3 0 3 3 0 3 10 10 3 0 0 0 0 0 0 0 0 0 0 0 0 0 0 0 0 0 0 3 6
35 48 42 29 29 26 23 19 16 19 10 16 13 6 0 0 0 0 0 0 6 3 3 3 0 3 3 0 0 0 0 0 0 0 0 0 0 0 0 0 0 0 0
42 42 48 42 32 32 29 16 16 13 13 10 13 6 3 3 0 0 0 0 0 6 3 3 3 3 3 0 0 0 0 0 0 0 0 0 0 0 0 0 0 0 0
42 48 45 42 29 29 23 19 10 13 10 10 13 6 3 3 0 0 0 0 0 0 3 3 3 3 3 0 0 0 0 0 0 0 0 0 0 0 0 0 0 0 0
42 45 42 32 26 23 19 23 10 10 6 10 6 10 3 3 0 0 0 0 0 0 0 3 3 3 3 0 0 0 0 0 0 0 0 0 0 0 0 0 0 0 0
39 42 35 35 26 23 16 16 10 10 6 10 10 6 3 0 0 0 0 0 0 0 3 6 6 6 3 3 0 0 0 0 0 0 0 0 0 0 0 0 0 0 0
29 32 26 32 29 19 19 16 10 10 6 6 6 10 3 3 0 0 0 0 0 3 3 3 3 3 6 6 0 0 3 0 0 0 0 0 0 0 0 0 0 0 0
19 23 23 26 26 16 13 16 10 10 10 6 6 6 6 3 3 0 0 0 0 0 0 3 3 3 3 6 6 3 3 3 3 3 0 0 0 0 0 0 0 0 0
16 13 13 23 19 23 13 10 6 6 6 3 6 6 6 6 6 0 0 3 0 0 0 0 3 3 3 3 6 6 6 3 3 3 3 0 0 0 0 0 0 0 0
13 16 16 19 19 29 23 19 6 3 3 3 6 10 10 6 6 10 10 6 3 3 3 3 3 3 3 3 3 3 6 3 3 3 3 3 3 3 3 0 0 0 0
10 16 16 16 16 10 13 3 10 10 10 6 6 10 6 3 3 3 3 3 0 0 3 3 3 3 3 3 3 6 6 6 6 3 3 3 3 0 0 0 0 0 0
10 13 13 13 10 10 10 10 3 10 10 6 6 6 3 3 3 6 3 3 3 0 0 3 3 3 3 3 3 3 3 6 3 3 0 0 0 0 0 0 0 0 0
10 16 13 10 13 13 10 6 3 3 3 3 3 3 6 6 0 0 0 3 3 3 3 3 3 3 3 3 0 0 0 0 0 0 0 3 0 0 0 0 0 0 0
6 10 3 3 6 10 10 6 3 3 3 3 6 3 3 0 0 0 0 0 3 3 3 3 3 0 0 0 3 0 0 0 0 0 0 0 0 0 0 0 0 0 0
3 3 3 0 3 3 3 3 0 3 3 3 3 3 0 0 0 0 0 0 0 0 0 3 0 0 3 0 0 0 0 0 0 0 0 0 0 0 0 0 0 0 0
6 6 3 3 0 0 3 3 3 3 3 3 3 3 0 0 0 0 3 3 0 0 3 0 0 0 0 0 0 0 0 0 0 0 0 0 0 0 0 0 0 0 0
3 3 3 3 0 0 0 0 3 3 3 3 3 3 0 0 3 3 3 3 3 3 3 3 0 0 0 0 0 0 0 0 0 0 0 0 0 0 0 0 0 0 0
3 0 0 0 0 0 0 0 0 0 0 0 0 0 0 0 3 3 3 3 3 3 3 3 0 0 0 0 0 0 0 0 0 0 0 0 0 0 0 0 0 0 0
0 0 0 0 0 0 0 0 0 0 3 3 3 0 0 0 0 3 3 3 3 3 3 0 0 0 0 0 0 0 0 0 0 0 0 0 0 0 0 0 0 0 0
0 0 0 0 0 0 0 0 0 0 3 3 3 0 0 3 3 3 3 3 3 0 0 0 0 0 0 0 0 0 0 0 0 0 0 0 0 0 0 0 0 0 0
0 0 0 0 0 0 0 0 0 0 0 0 0 0 0 3 3 3 3 3 0 0 0 0 0 0 0 0 0 0 0 0 0 0 0 0 0 0 0 0 0 0 0
0 0 0 0 0 0 0 0 0 0 0 0 0 0 0 0 3 3 3 0 0 0 0 0 0 0 0 0 0 0 0 0 0 0 0 0 0 0 0 0 0 0 0
0 0 3 0 0 0 0 0 0 0 0 0 0 0 0 0 0 0 0 0 0 0 0 0 0 0 0 0 0 0 0 0 0 0 0 0 0 0 0 0 0 0 0
0 0 0 0 0 0 0 0 0 0 0 0 0 0 0 0 0 0 0 0 0 0 0 0 0 0 0 0 0 0 0 0 0 0 0 0 0 0 0 0 0 0 0
0 0 0 0 0 0 0 0 0 0 0 0 0 0 0 0 0 0 0 0 0 0 0 0 0 0 0 0 0 0 0 0 0 0 0 0 0 0 0 0 0 0 0

GEFSMW_con_cape1000_144.txt.gz
Probability
87 87 87 90 90 84 84 84 77 74 77 77 74 68 71 77 81 74 74 81 71 61 68 45 77 65 48 52 23 42 39 32 39 23 13 13 6 10 16 13 16 13 10
84 90 87 84 84 77 74 77 74 74 71 77 77 74 74 74 65 68 77 71 68 61 55 77 65 65 74 61 52 55 35 39 32 16 19 19 23 19 3 13 16 13 10
84 84 84 81 74 77 74 65 65 74 71 74 71 61 68 68 52 61 55 68 68 58 61 65 58 71 45 45 55 58 48 39 19 23 16 16 13 10 10 6 10 13 13
68 71 81 81 74 74 68 61 61 61 65 65 61 58 55 48 58 58 52 61 58 61 55 65 68 68 45 61 48 39 45 52 42 23 19 13 6 6 6 13 10 13 13
71 84 81 77 74 71 61 55 58 61 65 65 65 61 52 55 52 58 48 58 55 45 48 61 58 58 55 55 48 52 52 45 45 26 16 13 16 10 10 10 3 6 3
68 81 74 77 74 65 58 55 58 65 65 58 55 55 48 48 52 55 42 48 58 55 52 52 55 52 42 45 48 52 58 48 45 42 19 16 23 23 19 10 13 13 0
81 81 74 74 77 74 58 68 68 58 55 55 48 48 52 52 55 52 48 42 39 42 58 45 58 48 45 45 52 52 45 45 48 45 35 23 16 13 19 6 6 10 10
74 77 71 68 68 65 68 61 58 61 58 52 52 52 48 55 48 58 52 45 45 45 48 48 52 45 42 35 55 39 35 52 48 26 39 29 19 13 13 16 10 6 6
65 74 71 65 61 61 61 61 65 61 52 52 52 52 42 42 45 55 52 52 58 45 42 45 45 45 42 42 58 42 48 48 39 29 32 19 19 16 16 13 23 16 6
68 65 61 55 55 58 58 55 58 61 55 45 48 35 42 39 35 42 45 48 58 45 45 39 42 42 45 45 58 45 39 42 42 39 39 32 23 19 10 13 16 19 10
65 58 65 58 55 55 55 55 52 52 48 48 52 45 32 35 32 35 39 42 48 42 42 39 45 32 32 32 45 35 35 32 32 29 26 29 29 19 16 13 16 19 10
65 74 61 58 55 52 55 42 48 42 48 48 45 39 39 39 32 32 32 45 42 35 39 29 23 29 23 29 32 26 29 29 32 29 26 29 19 26 19 26 13 16 19
68 68 61 55 58 52 48 39 42 45 48 48 39 39 39 35 32 29 39 42 39 39 26 19 23 13 13 19 16 13 16 16 26 23 26 19 16 19 16 26 19 26 6
68 68 68 61 61 58 48 39 45 39 39 32 39 35 26 26 26 32 29 26 42 42 39 26 19 16 16 10 10 6 16 19 16 13 10 10 10 6 19 6 23 19 26
58 58 52 55 58 61 52 42 42 39 39 35 29 29 32 26 23 23 19 16 23 23 26 16 13 13 13 13 6 10 10 13 19 13 10 6 0 0 0 0 13 6 16
45 42 32 42 39 39 35 39 35 39 35 32 29 29 29 23 23 19 16 23 19 19 16 19 13 13 6 3 0 3 10 10 13 19 13 10 3 0 0 0 0 0 3
39 45 39 39 42 35 35 39 29 26 29 32 32 29 32 32 23 10 10 13 23 19 19 10 6 6 6 0 0 0 3 10 10 13 16 10 0 0 3 0 0 0 0
35 39 35 32 35 35 23 32 26 19 23 32 35 35 29 26 23 19 16 19 16 19 23 16 6 6 6 0 0 0 0 6 6 10 10 13 10 3 3 6 6 3 3
39 32 32 32 32 29 26 19 19 23 23 26 32 32 26 26 19 19 13 19 19 23 19 13 13 16 3 0 0 0 3 6 10 6 0 3 3 0 0 0 3 3 3
32 29 29 29 29 26 26 16 13 13 13 16 23 23 26 26 19 23 19 23 23 23 19 16 6 3 3 0 0 0 3 6 6 6 6 0 0 0 0 0 0 0 0
26 29 29 29 26 26 16 16 13 13 10 10 13 19 23 23 26 26 26 23 26 19 10 6 6 3 3 0 0 0 6 3 0 0 0 0 0 0 0 0 0 0 0
23 23 19 23 19 16 16 10 10 10 6 13 13 16 29 19 16 26 26 19 19 10 6 6 3 3 3 0 0 0 0 0 0 0 3 3 0 0 0 0 0 0 0
16 16 16 16 16 19 23 16 16 6 6 6 10 13 13 13 13 13 19 13 6 6 6 3 3 3 3 0 0 0 0 0 0 0 0 0 0 0 0 0 0 0 0
13 13 10 10 13 13 10 13 10 10 6 6 6 13 13 10 10 10 6 6 6 3 6 3 3 3 0 0 3 0 0 0 0 0 0 0 0 0 0 0 0 0 0
3 6 6 6 10 10 10 10 10 10 10 10 6 3 3 0 3 0 3 0 3 3 0 0 0 0 0 3 0 3 3 0 0 0 0 0 0 0 0 0 0 0 0
0 0 0 0 0 3 6 6 6 6 6 6 0 0 0 0 3 3 0 0 0 0 0 0 0 0 0 0 0 0 0 0 0 0 0 0 0 0 0 0 0 0 0

GEFSMW_con_cape1000_150.txt.gz
Probability
90 90 94 97 100 100 100 97 94 94 87 81 81 74 81 84 84 84 84 90 84 84 90 81 87 77 84 77 65 68 71 77 84 74 39 48 42 45 58 42 32 32 35
90 97 100 100 100 100 100 94 90 90 84 81 81 77 81 84 81 84 84 77 84 90 65 90 84 81 87 84 81 81 77 65 65 74 35 26 29 39 10 45 42 35 39
94 97 97 97 97 97 94 90 90 81 81 81 81 77 74 81 87 81 84 77 77 87 87 87 77 87 84 84 87 84 77 68 55 55 42 19 23 29 42 32 26 45 45
90 90 97 97 97 97 94 90 87 81 81 81 77 74 68 61 77 84 81 77 77 74 77 81 77 81 90 90 81 71 84 68 55 55 55 42 29 19 26 23 35 35 39
87 87 90 90 87 81 77 87 87 84 81 81 81 81 68 74 74 81 81 81 77 74 68 77 81 77 84 87 81 77 77 77 55 55 42 45 42 23 16 10 23 29 39
77 87 77 84 84 77 81 84 84 84 81 74 74 74 71 58 65 71 81 87 77 74 71 74 84 87 87 90 81 74 71 74 68 68 55 35 32 23 23 10 16 16 16
81 77 77 81 81 77 77 81 84 84 74 74 74 68 74 65 65 74 77 77 74 68 77 71 84 84 81 81 84 77 74 68 61 58 58 52 35 39 32 19 26 19 29
81 77 74 81 87 77 77 74 81 77 74 74 77 74 74 61 58 65 58 65 55 58 65 61 58 65 71 58 65 65 68 65 65 42 58 65 42 39 35 26 23 13 23
71 68 68 68 71 81 81 77 81 77 74 74 77 71 68 71 58 61 65 61 58 48 52 48 55 52 58 65 65 68 68 68 65 52 55 52 45 35 39 42 26 16 3
52 61 61 58 68 74 81 81 81 77 77 74 71 61 74 61 58 61 61 61 61 61 65 55 52 52 52 58 55 55 65 65 61 61 58 61 42 42 39 29 29 26 26
58 61 74 77 74 71 74 74 77 77 71 74 71 74 71 61 61 58 55 58 65 58 65 55 52 48 45 48 52 55 52 48 48 42 39 39 42 45 42 42 39 35 35
68 74 71 74 68 68 74 74 71 68 65 65 68 74 65 65 61 61 52 58 58 61 55 58 48 42 35 45 45 35 35 32 35 42 45 45 26 48 45 45 35 39 32
81 81 77 77 81 77 71 74 65 58 52 52 48 61 52 48 48 52 48 42 42 48 35 45 42 42 39 35 32 26 26 23 23 23 32 26 29 39 35 29 35 39 16
87 84 77 77 81 74 77 74 58 58 48 48 42 35 39 42 42 45 39 32 32 32 32 32 39 42 45 35 23 29 32 32 26 19 23 13 23 19 16 16 19 13 6
81 74 77 81 81 74 68 65 61 61 52 42 29 35 32 45 42 32 26 26 23 23 32 29 29 39 23 13 19 29 23 29 29 26 19 10 13 6 10 0 10 3 6
68 65 61 68 71 68 68 65 61 58 45 42 35 35 29 35 29 26 23 26 19 26 29 23 23 16 10 0 0 6 23 29 26 23 19 16 6 0 0 0 0 0 0
61 52 58 55 58 58 55 52 55 52 42 42 39 39 39 32 29 23 23 23 29 29 26 19 19 23 10 0 0 0 13 23 23 23 23 6 6 6 6 0 0 0 0
55 55 52 55 48 55 52 52 42 45 42 42 42 39 32 35 32 32 29 32 32 32 29 23 23 19 6 0 0 0 0 10 19 16 16 10 6 0 0 6 6 3 3
52 55 48 52 42 42 35 39 39 32 35 39 35 35 32 29 29 26 26 29 29 26 23 19 19 19 3 0 0 0 6 10 6 3 3 3 3 0 0 0 3 3 0
48 39 35 35 35 35 32 35 29 23 19 23 19 26 35 32 32 26 29 29 26 23 19 19 19 16 3 0 0 0 6 3 6 3 0 0 0 0 0 0 0 0 0
35 35 39 39 35 32 23 19 16 13 16 23 23 26 23 23 26 32 23 19 23 19 19 10 6 6 3 0 0 0 0 3 3 0 0 0 0 0 0 0 0 0 0
29 29 39 39 39 29 26 19 19 10 13 16 19 19 19 10 6 13 23 29 26 19 10 6 3 3 3 0 0 0 0 0 0 0 0 0 0 0 0 0 0 0 0
26 29 29 26 19 23 23 16 16 16 13 16 13 13 13 16 6 13 16 23 19 13 6 3 3 3 3 3 0 0 0 0 0 0 0 0 0 0 0 0 0 0 0
16 23 19 19 19 19 16 16 13 13 10 13 13 13 13 13 10 13 10 10 10 3 0 0 0 3 3 0 0 0 0 0 0 0 0 0 0 0 0 0 0 0 0
16 16 16 13 10 13 13 13 10 10 10 10 13 10 10 10 0 0 0 0 0 0 0 0 0 0 0 0 0 0 0 0 0 0 0 0 0 0 0 0 0 0 0
16 10 10 10 10 6 6 10 10 10 10 10 10 10 0 0 0 0 0 0 0 0 0 0 0 0 0 0 0 0 0 0 0 0 0 0 0 0 0 0 0 0 0

GEFSMW_con_cape1000_156.txt.gz
Probability
74 71 77 81 84 77 77 77 77 74 68 65 52 42 45 32 29 26 29 32 26 32 19 19 6 3 3 3 0 0 0 0 0 0 0 0 0 0 0 0 3 3 3
74 74 74 81 77 71 74 71 71 65 68 61 45 32 35 26 23 19 19 32 26 26 29 3 6 3 3 0 0 0 0 0 0 0 0 0 0 0 0 0 0 3 3
65 74 77 77 81 74 71 74 68 65 61 52 42 35 26 26 23 19 26 26 23 23 16 6 6 6 3 0 0 0 0 0 0 0 0 0 0 0 0 0 0 0 0
68 74 77 74 74 71 68 68 58 58 52 42 39 29 26 26 16 13 19 19 23 29 26 16 10 6 3 0 0 0 0 0 0 0 0 0 0 0 0 0 0 0 0
68 68 71 65 77 71 68 65 58 52 52 48 39 29 26 13 10 6 10 19 19 23 26 19 10 6 6 0 0 0 0 0 0 0 0 0 0 0 0 0 0 0 0
65 65 52 58 65 61 65 58 55 52 45 48 35 32 26 19 13 10 13 13 16 16 19 23 6 3 3 0 3 0 0 0 0 0 0 0 0 0 0 0 0 0 0
58 58 55 55 65 65 61 58 55 42 48 35 32 26 23 16 10 13 6 10 16 16 16 23 10 6 6 6 3 0 0 0 0 0 0 0 0 0 0 0 0 0 0
48 48 45 55 58 61 61 61 52 52 45 42 32 26 26 19 19 16 10 10 13 13 13 13 6 10 10 10 3 0 3 0 0 0 0 0 0 0 0 0 0 0 0
52 52 48 45 58 58 55 55 52 48 42 39 39 29 29 23 16 16 16 16 10 3 3 10 10 3 10 13 6 6 3 3 3 3 0 0 0 0 0 0 0 0 0
42 42 32 42 48 45 48 48 42 32 39 39 35 35 32 29 13 13 13 13 10 0 0 6 0 0 10 13 10 10 10 3 6 3 3 0 0 0 0 0 0 0 0
42 48 35 32 39 39 39 42 35 35 32 26 19 19 19 23 19 16 16 16 10 6 6 6 6 3 3 6 3 3 3 3 3 3 3 3 0 0 0 0 0 0 0
48 42 35 35 35 35 42 39 39 39 26 23 19 19 19 23 23 23 10 10 10 13 10 10 10 6 3 3 3 3 3 3 3 0 0 0 0 0 0 0 0 0 0
35 39 32 26 32 32 26 32 29 29 26 26 19 19 19 19 13 13 6 6 6 6 6 6 6 3 3 3 3 3 0 0 0 0 0 0 0 0 0 0 0 0 0
39 26 19 19 29 23 19 23 29 29 26 19 23 19 19 13 13 10 6 6 6 6 6 3 3 3 3 3 3 3 0 0 0 0 0 0 0 0 0 0 0 0 0
35 29 23 23 29 26 26 23 23 23 23 23 23 16 13 13 6 6 3 6 6 6 3 3 3 3 3 3 3 3 0 0 0 0 0 0 0 0 0 0 0 0 0
35 32 35 23 32 19 23 19 19 16 23 26 19 16 16 16 10 6 6 6 6 3 3 3 3 3 0 0 0 0 0 0 0 0 0 0 0 0 0 0 0 0 0
35 32 32 23 26 16 16 13 6 6 10 13 10 10 10 13 13 10 6 6 3 3 3 3 3 0 0 0 0 0 0 0 0 0 0 0 0 0 0 0 0 0 0
23 16 10 10 13 13 10 6 3 3 3 3 3 6 10 6 6 10 6 0 0 0 0 0 0 0 0 0 0 0 0 0 0 0 0 0 0 0 0 0 0 0 0
10 10 6 6 10 6 0 0 0 3 3 3 3 3 6 6 6 6 6 0 0 0 0 0 0 0 0 0 0 0 0 0 0 0 0 0 0 0 0 0 0 0 0
10 10 6 3 0 0 0 0 0 0 0 0 3 3 3 6 6 6 3 0 0 0 0 0 0 0 0 0 0 0 0 0 0 0 0 0 0 0 0 0 0 0 0
13 10 6 0 0 0 0 0 0 0 0 0 0 0 3 3 6 3 3 3 0 0 0 0 0 0 0 0 0 0 0 0 0 0 0 0 0 0 0 0 0 0 0
10 6 3 0 0 0 0 0 0 0 0 0 0 0 0 0 3 3 3 3 3 0 0 0 0 0 0 0 0 0 0 0 0 0 0 0 0 0 0 0 0 0 0
3 3 3 3 0 0 0 0 0 0 0 0 0 0 0 0 0 0 3 3 3 3 0 0 0 0 0 0 0 0 0 0 0 0 0 0 0 0 0 0 0 0 0
3 3 3 3 3 0 0 0 0 0 0 0 0 0 0 0 0 0 0 0 3 3 3 0 0 0 0 0 0 0 0 0 0 0 0 0 0 0 0 0 0 0 0
3 3 3 3 3 3 3 3 3 0 0 0 0 0 0 0 0 0 0 0 0 0 0 0 0 0 0 0 0 0 0 0 0 0 0 0 0 0 0 0 0 0 0
0 0 0 0 0 0 0 0 3 3 0 0 0 0 0 0 0 0 0 0 0 0 0 0 0 0 0 0 0 0 0 0 0 0 0 0 0 0 0 0 0 0 0

GEFSMW_con_cape1000_162.txt.gz
Probability
29 42 39 48 48 32 26 23 26 19 19 16 16 10 6 6 3 6 6 10 10 10 10 10 6 3 3 0 0 0 0 0 0 0 0 0 0 0 0 3 3 3 3
39 42 45 42 48 39 29 29 32 26 23 16 13 13 6 6 6 10 6 10 16 13 10 6 6 3 3 0 0 0 0 0 0 0 0 0 0 0 0 0 0 3 6
45 42 48 52 45 42 29 35 23 19 19 13 6 10 10 6 10 10 10 10 16 13 13 13 6 3 3 0 0 0 0 0 0 0 0 0 0 0 0 0 0 0 3
48 48 52 58 58 42 29 23 19 19 16 16 16 16 13 10 10 10 10 13 3 13 13 10 6 3 3 0 0 0 0 0 0 0 0 0 0 0 0 0 0 0 0
45 48 48 55 45 39 29 23 29 26 19 16 16 10 10 10 10 3 6 6 3 3 10 6 10 6 6 0 0 0 0 0 0 0 0 0 0 0 0 0 0 0 0
32 42 39 42 48 42 45 32 26 23 26 23 16 16 6 6 3 3 3 3 3 3 3 10 10 6 6 3 3 0 0 0 0 0 0 0 0 0 0 0 0 0 0
35 39 42 42 42 39 45 48 35 32 23 23 16 16 10 10 6 3 3 3 3 6 6 6 3 10 6 6 3 3 0 0 0 0 0 0 0 0 0 0 0 0 0
26 32 29 35 39 42 42 42 39 32 23 23 26 23 19 10 10 3 3 0 0 3 3 3 3 10 0 0 6 0 0 0 0 0 0 0 0 0 0 0 0 0 0
35 39 39 35 29 32 39 39 39 39 23 26 29 23 16 13 6 6 6 6 3 0 0 3 3 3 3 3 3 0 0 0 0 0 0 0 0 0 0 0 0 0 0
35 39 32 32 29 29 39 42 32 29 23 19 19 16 13 10 10 3 3 3 3 3 3 3 3 3 3 3 0 3 6 0 0 0 3 3 3 3 0 0 0 0 0
29 32 32 32 26 19 23 23 29 26 19 19 19 19 10 10 10 6 3 3 3 3 3 3 3 3 3 0 0 0 0 3 3 6 6 6 6 3 3 0 0 0 0
29 19 26 23 23 23 19 23 26 23 23 16 19 19 19 16 10 6 6 6 6 3 0 0 0 0 0 3 3 0 0 0 6 3 3 3 3 0 0 0 0 0 0
26 23 23 26 23 26 23 19 23 19 19 19 19 19 19 13 13 13 10 3 3 3 3 0 3 3 3 3 3 3 3 3 3 3 3 3 0 0 0 0 0 0 0
23 23 19 19 19 19 16 16 16 10 16 16 16 19 13 10 10 10 10 6 6 6 6 3 3 6 6 3 3 3 3 3 3 0 0 0 0 0 0 0 0 0 0
23 23 16 16 16 16 16 19 16 16 10 13 13 10 10 10 10 10 6 6 6 6 6 3 3 6 3 3 3 3 0 0 0 0 0 0 0 0 0 0 0 0 0
26 16 16 16 16 16 13 13 13 10 6 6 13 10 6 6 6 6 6 3 3 3 3 3 3 0 3 3 0 0 0 0 0 0 0 0 0 0 0 0 0 0 0
16 3 10 10 6 6 6 6 6 6 6 6 3 6 6 6 6 6 6 3 3 3 3 3 3 0 0 0 0 0 0 0 0 0 0 0 0 0 0 0 0 0 0
6 6 3 3 0 3 6 6 6 6 3 3 3 3 3 3 6 6 3 3 3 3 3 0 0 0 0 0 0 0 0 0 0 0 0 0 0 0 0 0 0 0 0
3 0 0 0 0 3 3 3 3 3 3 3 3 3 3 3 3 6 6 3 3 0 0 0 0 0 0 0 0 0 0 0 0 0 0 0 0 0 0 0 0 0 0
3 0 0 0 0 3 3 3 3 0 0 0 0 3 3 3 3 3 6 6 0 0 0 0 0 0 0 0 0 0 0 0 0 0 0 0 0 0 0 0 0 0 0
0 0 0 0 0 0 3 3 0 0 0 0 0 0 0 0 3 3 3 3 3 0 0 0 0 0 0 0 0 0 0 0 0 0 0 0 0 0 0 0 0 0 0
3 0 0 0 0 0 0 0 0 0 0 0 0 0 0 0 0 0 3 3 3 3 3 0 0 0 0 0 0 0 0 0 0 0 0 0 0 0 0 0 0 0 0
0 3 0 0 0 0 0 0 0 0 0 0 0 0 0 0 0 0 0 3 3 3 3 3 3 0 0 0 0 0 0 0 0 0 0 0 0 0 0 0 0 0 0
0 0 0 0 0 0 0 0 0 0 0 0 0 0 0 0 0 0 0 0 0 3 3 3 3 0 0 0 0 0 0 0 0 0 0 0 0 0 0 0 0 0 0
0 0 0 0 0 0 0 0 0 0 0 0 0 0 0 0 0 0 0 0 0 0 0 0 3 0 0 0 0 0 0 0 0 0 0 0 0 0 0 0 0 0 0
0 0 0 0 0 0 0 0 0 0 0 0 0 0 0 0 0 0 0 0 0 0 0 0 0 0 0 0 0 0 0 0 0 0 0 0 0 0 0 0 0 0 0

GEFSMW_con_cape1000_168.txt.gz
Probability
81 81 74 77 74 74 87 87 81 84 87 81 81 84 87 87 84 74 71 74 77 77 81 68 77 77 61 61 42 45 35 39 45 23 19 26 13 29 35 29 26 19 19
87 84 81 81 77 77 84 87 84 87 84 87 90 77 77 74 71 68 81 84 74 71 71 77 74 74 87 74 68 65 42 32 35 19 23 13 19 26 3 26 32 23 19
90 81 81 84 74 81 81 77 84 87 87 81 74 68 71 71 71 74 81 71 74 71 81 74 74 74 71 68 81 81 68 45 32 35 26 19 23 10 19 26 19 32 19
81 77 81 84 84 77 81 84 90 87 87 81 71 68 71 65 65 77 71 65 71 68 77 77 81 90 77 87 77 45 58 61 42 42 55 32 16 13 13 23 26 39 42
77 77 84 84 81 81 81 81 81 87 84 81 71 71 65 68 61 65 77 77 77 74 68 87 90 94 87 90 84 68 68 52 45 39 35 39 45 29 23 23 26 39 29
94 90 81 81 81 81 77 81 81 84 81 77 74 71 71 68 65 68 68 68 74 68 65 81 87 87 87 87 87 81 71 68 61 55 52 55 39 35 35 23 35 35 26
87 90 87 87 87 77 77 81 81 77 84 81 74 71 77 77 68 65 68 65 55 58 81 68 84 84 90 87 81 84 71 65 74 61 55 52 39 39 32 29 19 19 13
84 87 90 84 77 74 74 74 74 74 71 74 77 77 74 71 61 61 68 61 58 48 58 74 74 81 81 71 77 71 65 74 68 48 61 58 35 29 23 23 19 26 19
74 81 74 71 74 77 74 71 74 71 68 65 71 68 61 61 55 61 65 58 61 48 58 61 61 65 68 74 81 71 71 61 55 45 45 42 42 39 32 29 35 26 13
65 65 68 68 68 68 71 68 71 68 68 61 55 52 61 58 58 58 52 58 52 55 55 55 55 55 55 58 74 65 58 52 48 52 48 48 35 39 32 26 23 23 23
68 71 71 68 65 61 65 65 71 61 52 52 52 48 48 39 42 48 39 42 48 52 55 48 45 45 42 39 45 39 32 29 39 35 35 45 42 32 35 35 29 23 13
71 77 74 71 65 61 61 61 55 55 45 48 45 42 45 42 35 35 39 32 32 39 42 45 42 39 35 35 29 19 23 23 23 26 29 32 32 39 32 32 26 23 23
77 77 74 74 68 68 58 52 52 42 39 42 42 35 39 35 35 29 29 26 23 26 26 32 35 32 29 26 23 19 19 16 19 16 19 23 29 32 29 29 26 16 0
81 74 74 77 71 68 58 45 45 39 39 32 32 32 32 29 26 26 26 26 26 23 23 19 23 23 23 23 19 19 19 19 13 19 16 23 19 16 13 16 16 16 16
68 77 77 71 68 61 55 48 45 42 35 32 29 32 26 19 19 19 16 19 19 13 23 16 19 19 23 19 19 19 19 23 13 19 13 10 6 0 0 3 10 6 16
71 74 71 68 65 61 58 52 45 42 39 26 29 23 26 19 19 10 10 16 19 16 16 16 13 13 10 6 3 6 10 16 13 16 19 10 3 0 0 0 0 0 3
71 74 68 65 55 52 52 52 45 35 29 26 16 19 16 16 16 13 13 13 16 19 16 13 13 13 10 0 0 0 3 10 16 16 16 10 0 0 0 0 0 0 0
74 68 61 65 52 45 45 48 39 35 29 16 16 16 13 13 16 13 19 19 16 19 16 10 6 6 3 0 0 0 0 10 10 13 13 10 6 3 0 3 3 3 3
71 65 55 45 45 42 45 39 32 26 23 13 13 10 10 10 3 3 6 13 16 10 6 6 3 3 3 0 0 0 0 6 6 10 10 10 6 0 0 0 0 0 3
61 55 42 45 39 32 32 35 29 19 10 6 6 6 3 3 3 3 13 13 10 10 6 3 3 3 3 0 0 0 3 3 6 6 3 3 3 0 0 3 0 3 3
45 39 32 35 32 32 29 23 16 13 6 3 3 3 6 3 6 6 6 10 10 6 3 3 3 3 3 3 0 0 3 3 3 3 3 3 0 0 0 0 3 3 3
29 29 29 35 26 29 23 16 10 6 6 3 3 6 6 0 0 3 3 6 6 6 3 3 3 3 3 3 0 0 0 0 3 3 3 0 0 0 0 0 0 0 0
29 26 23 16 16 16 13 10 6 6 6 3 3 3 3 3 3 3 3 3 3 0 0 3 3 3 3 3 0 0 0 0 0 0 0 0 0 0 0 0 0 0 0
23 19 16 13 13 10 3 3 3 3 3 3 3 3 3 3 3 3 0 0 0 0 3 3 3 3 3 3 0 0 0 0 0 0 0 0 0 0 0 0 0 0 0
13 13 13 10 13 10 3 3 3 6 3 3 3 3 3 3 3 3 3 0 0 0 0 0 0 3 3 0 0 0 0 0 0 0 0 0 0 0 0 0 0 0 0
10 6 10 10 10 10 6 3 6 3 3 3 3 0 0 3 3 0 0 0 0 0 0 0 0 0 0 0 0 0 0 0 0 0 0 0 0 0 0 0 0 0 0